Wynyard / W.B. Needham Field

Jump to: basic info | weather | frequencies | runways | comments

Related pages: nearby airports | nearby navaids | notams | map

Basic information (top)

Codes: CYYO
Location: lon 51.809888, lat -104.169788, elev 1,740 ft / 530 m msl
Status: small_airport
Scheduled airline service: no
Links: Wikipedia Mobile

Weather (top)

Current conditions for Yorkton Municipal Airport 72nm (133km) ESE (rec'd 2014/10/21 06:00Z):

CYQV 210600Z AUTO 15010KT 9SM CLR 09/04 A2977 RMK SLP090

Airport forecast for Yorkton Municipal Airport 72nm (133km) ESE (rec'd 2014/10/20 00:00Z):

TAF CYQV 202338Z 2100/2106 15012KT P6SM SKC 
      RMK FCST BASED ON AUTO OBS. NXT FCST WILL BE ISSUED AT 211145Z

Frequencies (top)

Verify before use: may be inaccurate or out of date.

ATF: 123.2 MHz (ATF)

Runways (top)

09/27: 3,000 x 75 ft (914 x 23 m) — paved — lighted

Latest comments (top)

Wynyard Airport renamed W.B. Needham Field: The Wynyard Airport was renamed "W.B. ... [read]

More... (top)

See also NOTAMs and nearby airports and navaids, or visit the Wynyard / W.B. Needham Field page at the main OurAirports website..